Regional Weather Roundup
Issued by NWS

Home | Current Version | Previous Version | Text Only | Print | Product List | Glossary Off
Versions: 1 2 3 4 5 6 7 8 9 10 11 12 13 14 15 16 17 18 19 20 21 22 23 24 25 26 27 28 29 30 31 32 33 34 35 36 37 38 39 40 41 42 43 44 45 46 47 48 49 50

231
ASUS44 KMEG 262310
RWRTN
TENNESSEE HOURLY STATE WEATHER ROUNDUP
NATIONAL WEATHER SERVICE MEMPHIS TN
500 PM CST SUN FEB 26 2017

TNZ002-004-019-021-049-052-054-088>092-270000-
WEST TENNESSEE

CITY           SKY/WX    TMP DP  RH WIND       PRES   REMARKS
MEMPHIS INTL   MOCLDY    60  21  22 SE10      30.04F
NWS MEMPHIS      N/A     60 N/A N/A MISG        N/A
JACKSON        CLEAR     58  20  22 E5        30.08F
UNION CITY     CLEAR     54  10  17 CALM      30.10S
PARIS          CLEAR     54  16  22 CALM      30.11S
HUNTINGDON     CLOUDY    57  19  23 S9        30.10R
$$

TNZ008-025-027-028-033-062-065-066-270000-
NORTH MIDDLE TENNESSEE

CITY           SKY/WX    TMP DP  RH WIND       PRES   REMARKS
NASHVILLE      MOCLDY    53  17  24 SE7       30.15S
PORTLAND       CLEAR     54  18  24 S6G12     30.14S
CLARKSVILLE    PTCLDY    54  14  20 S7        30.12R
SMYRNA         PTCLDY    54  21  27 SE9       30.16S
COOKEVILLE     CLEAR     52  21  30 CALM      30.15R
GALLATIN       CLEAR     55  16  21 S9        30.17S
CROSSVILLE     CLEAR     47  18  31 SE3       30.17R
$$

TNZ061-075-076-078-094-096-097-270000-
SOUTH MIDDLE TENNESSEE

CITY           SKY/WX    TMP DP  RH WIND       PRES   REMARKS
FAYETTEVILLE   CLEAR     55  21  26 S8        30.15S
TULLAHOMA      CLEAR     55  16  21 S6        30.16R
WINCHESTER     CLEAR     54  21  28 SE9       30.17R
MCMINNVILLE    CLEAR     55  21  26 SW3       30.16R
COLUMBIA       CLEAR     57  21  24 S9        30.12S
SHELBYVILLE    CLEAR     57  23  26 S7        30.16S
$$

TNZ017-018-042-046-047-270000-
NORTHEAST TENNESSEE

CITY           SKY/WX    TMP DP  RH WIND       PRES   REMARKS
TRI CITIES     PTCLDY    46  17  31 S5        30.21R
ELIZABETHTON   CLEAR     46  14  27 CALM      30.20R
$$

TNZ012-013-036-069-073-074-270000-
CENTRAL EAST TENNESSEE

CITY           SKY/WX    TMP DP  RH WIND       PRES   REMARKS
KNOXVILLE      PTCLDY    52  13  21 SW3       30.17F
OAK RIDGE      CLEAR     51  14  22 CALM      30.20S
GATLINBURG     CLEAR     50  14  23 VRB3      30.18F
MORRISTOWN     CLEAR     46  18  31 N5        30.18S
JACKSBORO      CLEAR     50  14  23 S6        30.21R
$$

TNZ083-085-099-270000-
SOUTHEAST TENNESSEE

CITY           SKY/WX    TMP DP  RH WIND       PRES   REMARKS
CHATTANOOGA    PTCLDY    55  17  22 CALM      30.19R
$$

SKY/WX REPORTED AS FAIR MEANS FEW OR NO CLOUDS BELOW
12 THOUSAND FEET.





USA.gov is the U.S. government's official web portal to all federal, state and local government web resources and services.